Regional Weather Roundup
Issued by NWS Sioux Falls, SD

Home | Current Version | Previous Version | Text Only | Print | Product List | Glossary On
Versions: 1 2 3 4 5 6 7 8 9 10 11 12 13 14 15 16 17 18 19 20 21 22 23 24 25 26 27 28 29 30 31 32 33 34 35 36 37 38 39 40 41 42 43 44 45 46 47 48 49 50
000
ASUS43 KFSD 200910
RWRFSD

WEATHER ROUNDUP FOR SE SOUTH DAKOTA/SW MINNESOTA/NW IOWA
NATIONAL WEATHER SERVICE SIOUX FALLS SD
400 AM CDT MON OCT 20 2014

NOTE: "FAIR" INDICATES FEW OR NO CLOUDS BELOW 12,000 FEET WITH NO
SIGNIFICANT WEATHER AND OR OBSTRUCTIONS TO VISIBILITY.


SDZ038>040-050-052>070-201000-
SOUTHEAST SOUTH DAKOTA

CITY           SKY/WX    TMP DP  RH WIND       PRES   REMARKS
CHAMBERLAIN    CLEAR     39  34  84 W5        30.06S
HURON          CLEAR     36  32  85 NW3       30.04S
MADISON        FAIR      37  36  93 NW7       30.03R
MITCHELL       CLEAR     45  37  73 W6        30.05R
SIOUX FALLS    CLEAR     40  36  86 CALM      30.02R
WINNER         FAIR      49  36  61 SW5       30.07S
YANKTON        CLEAR     46  37  71 SW6       30.03R
$$

MNZ071-072-080-081-089-090-097-098-201000-
SOUTHWEST MINNESOTA

CITY           SKY/WX    TMP DP  RH WIND       PRES   REMARKS
FAIRMONT       CLEAR     46  36  66 NW9       29.96S
JACKSON        CLEAR     39  34  81 CALM      29.98S
LUVERNE        CLEAR     41  36  81 N3        30.01S
MARSHALL       CLEAR     45  36  70 W10       29.97S
MONTEVIDEO     CLEAR     45  37  76 NW7       29.98S
PIPESTONE      CLEAR     41  36  81 CALM      30.00S
REDWOOD FALLS  CLEAR     43  37  79 W9        29.96R
TRACY          CLEAR     47  39  72 W7        29.99S
WINDOM         CLEAR     41  37  87 CALM      29.98S
WORTHINGTON    CLEAR     43  36  75 NW7       30.01R
$$

IAZ001>003-012>014-020>022-031-032-NEZ013-014-SDZ071-201000-
NORTHWEST IOWA

CITY           SKY/WX    TMP DP  RH WIND       PRES   REMARKS
CHEROKEE       CLEAR     39  38  97 CALM      30.00R
DENISON        CLEAR     43  43 100 N3        29.97S
ESTHERVILLE    CLEAR     42  37  82 NW9       29.97R
LE MARS        CLEAR     37  37 100 CALM      30.01S
ORANGE CITY    CLEAR     54  39  58 N5        30.00S
SHELDON        CLEAR     37  36  93 NW3       29.99S
SIOUX CITY     CLEAR     43  40  89 W3        30.01R
SPENCER        CLEAR     37  34  89 NW8       29.99R
STORM LAKE     CLEAR     46  39  76 N9        30.00R
$$

ABBREVIATIONS USED IN REMARKS
   TC - TEMPERATURE IN CELSIUS
  WCI - WIND CHILL INDEX
   HX - HEAT INDEX
  VSB - VISIBILITY




USA.gov is the U.S. government's official web portal to all federal, state and local government web resources and services.